| time (UTC) | temp F | wind direction | speed MPH | gust MPH | rain 1hr in | rain 24hr in | rain mn in | humidity % | barometer mb |
| 20260506134853 | 80 | 166 | 4.0 | 9.0 | 0.00 | 0.00 | 0.00 | 76 | 1017.3 |
| 20260506133851 | 79 | 109 | 5.0 | 10.0 | 0.00 | 0.00 | 0.00 | 78 | 1017.3 |
| 20260506132852 | 79 | 185 | 4.0 | 10.0 | 0.00 | 0.00 | 0.00 | 79 | 1017.2 |
| 20260506131852 | 77 | 160 | 4.0 | 9.0 | 0.00 | 0.00 | 0.00 | 83 | 1017.1 |
| 20260506130854 | 76 | 162 | 3.0 | 7.0 | 0.00 | 0.00 | 0.00 | 84 | 1017.0 |
| 20260506130325 | 75 | 133 | 3.0 | 7.0 | 0.00 | 0.00 | 0.00 | 86 | 1016.9 |
| 20260506124842 | 74 | 162 | 2.0 | 5.0 | 0.00 | 0.00 | 0.00 | 88 | 1016.8 |
| 20260506123842 | 72 | 132 | 1.0 | 4.0 | 0.00 | 0.00 | 0.00 | 90 | 1016.8 |
| 20260506123758 | 70 | 71 | 0.0 | 1.0 | 0.00 | 0.00 | 0.00 | 90 | 1016.8 |
| 20260506121846 | 69 | 71 | 0.0 | 1.0 | 0.00 | 0.00 | 0.00 | 90 | 1016.7 |
| 20260506120839 | 67 | 343 | 0.0 | 1.0 | 0.00 | 0.00 | 0.00 | 91 | 1016.6 |
| 20260506115836 | 66 | 343 | 0.0 | 0.0 | 0.00 | 0.00 | 0.00 | 92 | 1016.6 |
| 20260506114838 | 65 | 341 | 0.0 | 0.0 | 0.00 | 0.00 | 0.00 | 92 | 1016.5 |
| 20260506113835 | 64 | 317 | 0.0 | 1.0 | 0.00 | 0.00 | 0.00 | 93 | 1016.6 |
| 20260506112836 | 62 | 162 | 0.0 | 0.0 | 0.00 | 0.00 | 0.00 | 93 | 1016.4 |
| 20260506111829 | 62 | 203 | 0.0 | 0.0 | 0.00 | 0.00 | 0.00 | 93 | 1016.3 |
| 20260506110830 | 61 | 117 | 0.0 | 0.0 | 0.00 | 0.00 | 0.00 | 93 | 1016.2 |
| 20260506110259 | 61 | 105 | 0.0 | 0.0 | 0.00 | 0.00 | 0.00 | 93 | 1015.9 |
| 20260506104829 | 61 | 106 | 0.0 | 0.0 | 0.00 | 0.00 | 0.00 | 92 | 1016.1 |
| 20260506103830 | 61 | 106 | 0.0 | 0.0 | 0.00 | 0.00 | 0.00 | 92 | 1015.9 |
| 20260506102820 | 61 | 106 | 0.0 | 0.0 | 0.00 | 0.00 | 0.00 | 91 | 1016.0 |
| 20260506101818 | 61 | 105 | 0.0 | 0.0 | 0.00 | 0.00 | 0.00 | 91 | 1015.9 |
| 20260506100819 | 61 | 106 | 0.0 | 0.0 | 0.00 | 0.00 | 0.00 | 92 | 1015.9 |
| 20260506095818 | 61 | 105 | 0.0 | 0.0 | 0.00 | 0.00 | 0.00 | 92 | 1015.8 |
| 20260506094819 | 61 | 105 | 0.0 | 0.0 | 0.00 | 0.00 | 0.00 | 91 | 1015.8 |
| 20260506093818 | 61 | 106 | 0.0 | 0.0 | 0.00 | 0.00 | 0.00 | 91 | 1015.8 |
| 20260506092816 | 61 | 105 | 0.0 | 0.0 | 0.00 | 0.00 | 0.00 | 92 | 1015.6 |
| 20260506092252 | 61 | 106 | 0.0 | 0.0 | 0.00 | 0.00 | 0.00 | 92 | 1015.7 |
| 20260506090815 | 61 | 105 | 0.0 | 0.0 | 0.00 | 0.00 | 0.00 | 92 | 1015.5 |
| 20260506085817 | 61 | 106 | 0.0 | 0.0 | 0.00 | 0.00 | 0.00 | 91 | 1015.5 |
| 20260506084815 | 61 | 105 | 0.0 | 0.0 | 0.00 | 0.00 | 0.00 | 91 | 1015.6 |
| 20260506083813 | 61 | 106 | 0.0 | 0.0 | 0.00 | 0.00 | 0.00 | 91 | 1015.6 |
| 20260506082816 | 61 | 106 | 0.0 | 0.0 | 0.00 | 0.00 | 0.00 | 90 | 1015.7 |
| 20260506081813 | 61 | 105 | 0.0 | 0.0 | 0.00 | 0.00 | 0.00 | 91 | 1015.7 |
| 20260506080814 | 61 | 105 | 0.0 | 0.0 | 0.00 | 0.00 | 0.00 | 91 | 1015.6 |
| 20260506072805 | 62 | 105 | 0.0 | 0.0 | 0.00 | 0.00 | 0.00 | 91 | 1015.8 |
| 20260506071805 | 62 | 106 | 0.0 | 0.0 | 0.00 | 0.00 | 0.00 | 91 | 1015.8 |
| 20260506071237 | 62 | 106 | 0.0 | 0.0 | 0.00 | 0.00 | 0.00 | 90 | 1015.8 |
| 20260506061749 | 62 | 105 | 0.0 | 0.0 | 0.00 | 0.00 | 0.00 | 88 | 1016.2 |
| 20260506061704 | 63 | 105 | 0.0 | 0.0 | 0.00 | 0.00 | 0.00 | 88 | 1016.3 |
| 20260506050744 | 64 | 105 | 0.0 | 0.0 | 0.00 | 0.00 | 0.00 | 87 | 1016.7 |
| 20260506044745 | 65 | 105 | 0.0 | 0.0 | 0.00 | 0.00 | 0.00 | 85 | 1016.7 |
| 20260506043742 | 65 | 106 | 0.0 | 0.0 | 0.00 | 0.00 | 0.00 | 85 | 1016.7 |
| 20260506042742 | 65 | 105 | 0.0 | 1.0 | 0.00 | 0.00 | 0.00 | 85 | 1016.6 |
| 20260506041743 | 66 | 106 | 0.0 | 0.0 | 0.00 | 0.00 | 0.00 | 84 | 1016.5 |
| 20260506040744 | 67 | 106 | 0.0 | 0.0 | 0.00 | 0.00 | 0.00 | 82 | 1016.6 |
| 20260506040712 | 67 | 106 | 0.0 | 0.0 | 0.00 | 0.00 | 0.00 | 81 | 1016.6 |
| 20260506034728 | 67 | 106 | 0.0 | 1.0 | 0.00 | 0.00 | 0.00 | 81 | 1016.7 |
| 20260506034206 | 68 | 106 | 0.0 | 1.0 | 0.00 | 0.00 | 0.00 | 81 | 1016.7 |
| 20260506032729 | 68 | 105 | 0.0 | 2.0 | 0.00 | 0.00 | 0.00 | 81 | 1016.7 |
| 20260506032207 | 68 | 106 | 0.0 | 0.0 | 0.00 | 0.00 | 0.00 | 80 | 1016.8 |
| 20260506031210 | 68 | 105 | 0.0 | 1.0 | 0.00 | 0.00 | 0.00 | 80 | 1016.7 |
| 20260506030208 | 69 | 106 | 0.0 | 0.0 | 0.00 | 0.00 | 0.00 | 79 | 1016.7 |
| 20260506024723 | 69 | 106 | 0.0 | 0.0 | 0.00 | 0.00 | 0.00 | 77 | 1016.7 |
| 20260506023722 | 70 | 106 | 0.0 | 2.0 | 0.00 | 0.00 | 0.00 | 75 | 1016.7 |
| 20260506022719 | 71 | 105 | 1.0 | 3.0 | 0.00 | 0.00 | 0.00 | 74 | 1016.5 |
| 20260506022157 | 71 | 106 | 1.0 | 3.0 | 0.00 | 0.00 | 0.00 | 74 | 1016.4 |
| 20260506020723 | 71 | 106 | 1.0 | 3.0 | 0.00 | 0.00 | 0.00 | 73 | 1016.2 |
| 20260506015717 | 71 | 102 | 1.0 | 2.0 | 0.00 | 0.00 | 0.00 | 73 | 1016.2 |
| 20260506014716 | 72 | 102 | 1.0 | 3.0 | 0.00 | 0.00 | 0.00 | 71 | 1016.0 |
| 20260506013720 | 73 | 102 | 1.0 | 3.0 | 0.00 | 0.00 | 0.00 | 69 | 1015.9 |
| 20260506012713 | 74 | 92 | 3.0 | 7.0 | 0.00 | 0.00 | 0.00 | 68 | 1015.8 |
| 20260506011711 | 74 | 93 | 2.0 | 6.0 | 0.00 | 0.00 | 0.00 | 67 | 1015.7 |
| 20260506010711 | 75 | 106 | 3.0 | 8.0 | 0.00 | 0.00 | 0.00 | 66 | 1015.6 |
| 20260506005711 | 75 | 119 | 3.0 | 7.0 | 0.00 | 0.00 | 0.00 | 65 | 1015.5 |
| 20260506005151 | 76 | 123 | 3.0 | 9.0 | 0.00 | 0.00 | 0.00 | 63 | 1015.2 |
| 20260506003709 | 76 | 103 | 4.0 | 12.0 | 0.00 | 0.00 | 0.00 | 62 | 1015.1 |
| 20260506003207 | 77 | 73 | 5.0 | 11.0 | 0.00 | 0.00 | 0.00 | 61 | 1015.1 |
| 20260506001705 | 77 | 121 | 3.0 | 9.0 | 0.00 | 0.00 | 0.00 | 60 | 1015.0 |
| 20260506001140 | 77 | 117 | 5.0 | 13.0 | 0.00 | 0.00 | 0.00 | 60 | 1015.1 |
| 20260505235705 | 78 | 96 | 6.0 | 14.0 | 0.00 | 0.00 | 0.00 | 60 | 1014.8 |
| 20260505234704 | 78 | 127 | 4.0 | 8.0 | 0.00 | 0.00 | 0.00 | 60 | 1014.7 |
| 20260505233707 | 79 | 105 | 4.0 | 13.0 | 0.00 | 0.00 | 0.00 | 59 | 1014.7 |
| 20260505232701 | 79 | 119 | 4.0 | 10.0 | 0.00 | 0.00 | 0.00 | 58 | 1014.7 |
| 20260505231658 | 80 | 117 | 7.0 | 16.0 | 0.00 | 0.00 | 0.00 | 57 | 1014.8 |
| 20260505230700 | 80 | 155 | 8.0 | 16.0 | 0.00 | 0.00 | 0.00 | 57 | 1014.7 |
| 20260505230147 | 81 | 96 | 6.0 | 14.0 | 0.00 | 0.00 | 0.00 | 57 | 1014.6 |
| 20260505224700 | 82 | 132 | 7.0 | 13.0 | 0.00 | 0.00 | 0.00 | 56 | 1014.6 |
| 20260505223652 | 83 | 101 | 7.0 | 13.0 | 0.00 | 0.00 | 0.00 | 55 | 1014.6 |
| 20260505222654 | 83 | 109 | 6.0 | 12.0 | 0.00 | 0.00 | 0.00 | 53 | 1014.4 |
| 20260505221653 | 85 | 86 | 5.0 | 12.0 | 0.00 | 0.00 | 0.00 | 53 | 1014.5 |
| 20260505220654 | 85 | 100 | 6.0 | 13.0 | 0.00 | 0.00 | 0.00 | 52 | 1014.3 |
| 20260505215654 | 86 | 125 | 4.0 | 11.0 | 0.00 | 0.00 | 0.00 | 51 | 1014.3 |
| 20260505214640 | 85 | 106 | 5.0 | 13.0 | 0.00 | 0.00 | 0.00 | 51 | 1014.3 |
| 20260505213639 | 86 | 59 | 5.0 | 10.0 | 0.00 | 0.00 | 0.00 | 51 | 1014.2 |
| 20260505212640 | 86 | 90 | 5.0 | 13.0 | 0.00 | 0.00 | 0.00 | 51 | 1014.2 |
| 20260505211639 | 86 | 133 | 5.0 | 13.0 | 0.00 | 0.00 | 0.00 | 51 | 1014.3 |
| 20260505210641 | 86 | 59 | 3.0 | 9.0 | 0.00 | 0.00 | 0.00 | 50 | 1014.2 |
| 20260505205633 | 85 | 131 | 4.0 | 9.0 | 0.00 | 0.00 | 0.00 | 51 | 1014.2 |
| 20260505205113 | 85 | 155 | 4.0 | 10.0 | 0.00 | 0.00 | 0.00 | 50 | 1014.2 |
| 20260505203632 | 86 | 113 | 4.0 | 9.0 | 0.00 | 0.00 | 0.00 | 50 | 1014.3 |
| 20260505203548 | 85 | 137 | 6.0 | 12.0 | 0.00 | 0.00 | 0.00 | 52 | 1014.3 |
| 20260505201618 | 85 | 150 | 7.0 | 18.0 | 0.00 | 0.00 | 0.00 | 52 | 1014.3 |
| 20260505200617 | 85 | 106 | 5.0 | 14.0 | 0.00 | 0.00 | 0.00 | 51 | 1014.4 |
| 20260505195618 | 87 | 106 | 4.0 | 8.0 | 0.00 | 0.00 | 0.00 | 45 | 1014.5 |
| 20260505194619 | 88 | 51 | 3.0 | 8.0 | 0.00 | 0.00 | 0.00 | 48 | 1014.5 |
| 20260505193619 | 86 | 119 | 5.0 | 12.0 | 0.00 | 0.00 | 0.00 | 49 | 1014.7 |
| 20260505192615 | 87 | 19 | 5.0 | 11.0 | 0.00 | 0.00 | 0.00 | 48 | 1014.8 |
| 20260505192055 | 87 | 146 | 6.0 | 12.0 | 0.00 | 0.00 | 0.00 | 50 | 1014.9 |
| 20260505190617 | 87 | 117 | 5.0 | 13.0 | 0.00 | 0.00 | 0.00 | 49 | 1015.0 |
| 20260505185614 | 86 | 79 | 3.0 | 9.0 | 0.00 | 0.00 | 0.00 | 52 | 1015.1 |
| 20260505184613 | 84 | 117 | 3.0 | 8.0 | 0.00 | 0.00 | 0.00 | 52 | 1015.2 |
| 20260505183614 | 84 | 61 | 3.0 | 8.0 | 0.00 | 0.00 | 0.00 | 53 | 1015.3 |
| 20260505182615 | 84 | 79 | 4.0 | 9.0 | 0.00 | 0.00 | 0.00 | 53 | 1015.4 |
| 20260505181615 | 84 | 84 | 3.0 | 10.0 | 0.00 | 0.00 | 0.00 | 52 | 1015.6 |
| 20260505180614 | 84 | 98 | 3.0 | 10.0 | 0.00 | 0.00 | 0.00 | 53 | 1015.7 |
| 20260505175615 | 85 | 59 | 4.0 | 9.0 | 0.00 | 0.00 | 0.00 | 52 | 1015.7 |
| 20260505174613 | 85 | 31 | 5.0 | 12.0 | 0.00 | 0.00 | 0.00 | 51 | 1015.9 |
| 20260505174050 | 87 | 67 | 4.0 | 9.0 | 0.00 | 0.00 | 0.00 | 51 | 1015.8 |
| 20260505172616 | 87 | 92 | 5.0 | 10.0 | 0.00 | 0.00 | 0.00 | 50 | 1016.0 |
| 20260505171613 | 87 | 29 | 4.0 | 9.0 | 0.00 | 0.00 | 0.00 | 53 | 1016.0 |
| 20260505170614 | 84 | 96 | 4.0 | 10.0 | 0.00 | 0.00 | 0.00 | 51 | 1016.1 |
| 20260505165615 | 85 | 115 | 6.0 | 13.0 | 0.00 | 0.00 | 0.00 | 51 | 1016.2 |
| 20260505164613 | 83 | 95 | 4.0 | 11.0 | 0.00 | 0.00 | 0.00 | 54 | 1016.2 |
| 20260505163613 | 85 | 74 | 4.0 | 12.0 | 0.00 | 0.00 | 0.00 | 52 | 1016.2 |
| 20260505162616 | 85 | 89 | 4.0 | 10.0 | 0.00 | 0.00 | 0.00 | 53 | 1016.2 |
| 20260505161604 | 83 | 182 | 5.0 | 11.0 | 0.00 | 0.00 | 0.00 | 52 | 1016.2 |
| 20260505160605 | 85 | 88 | 5.0 | 10.0 | 0.00 | 0.00 | 0.00 | 55 | 1016.2 |
| 20260505152602 | 83 | 154 | 5.0 | 14.0 | 0.00 | 0.00 | 0.00 | 54 | 1016.3 |
| 20260505152043 | 82 | 105 | 5.0 | 12.0 | 0.00 | 0.00 | 0.00 | 59 | 1016.4 |
| 20260505151047 | 82 | 120 | 7.0 | 14.0 | 0.00 | 0.00 | 0.00 | 57 | 1016.4 |
| 20260505140549 | 79 | 94 | 6.0 | 12.0 | 0.00 | 0.00 | 0.00 | 67 | 1015.9 |